[[{"header":{"parameterUnit":"m.s-1","parameterCategory":1,"la1":30.2991,"la2":30.254,"lo1":-89.0895,"lo2":-89.0444,"dy":0.0017,"dx":0.0017,"nx":28,"ny":28,"refTime":"2023-08-13T03:00:00:Z","depth":0,"parameterNumber":2,"parameterNumberName":"U-component_of_WINDS"},"data":[0,0,0,0,0,0,0,0,0,0,0,0,0,0,0,0,0,0,0,0,0,0,0,0,0,0,0,0,0,0,0,0,0,0,0,0,0,0,0,0,0,0,0,0,0,0,0,0,0,0,0,0,0,0,0,0,0,0,2.0064,2.0065,0,2.0127,2.0127,2.0128,2.0098,2.0096,2.0095,2.0093,2.0158,2.0161,2.0164,0,0,0,0,0,0,0,0,0,0,0,0,0,1.9918,1.9921,2.0064,2.0065,2.0066,2.0127,2.0127,2.0128,2.0098,2.0096,2.0094,2.0093,2.0157,2.016,2.0164,0,0,0,0,0,0,0,0,0,0,0,0,0,1.9981,1.9922,2.0064,2.0058,2.0058,2.0126,2.0127,2.0128,2.0099,2.0096,2.0094,2.0092,2.0155,2.016,2.0165,2.0242,0,0,2.0179,2.0181,0,0,0,0,0,0,0,0,1.9978,1.9986,2.0058,2.0059,2.0059,2.0102,2.0099,2.0167,2.0099,2.0084,2.0093,2.0091,2.0141,2.0147,2.0164,2.0245,2.0248,2.018,2.0183,2.0185,2.0186,0,0,0,0,0,0,0,1.9973,1.9984,2.0089,2.006,2.006,2.0052,2.0058,2.0112,2.0125,2.0085,2.0083,2.009,2.0141,2.0159,2.0165,2.0249,2.018,2.0184,2.0187,2.0189,2.0394,2.0396,0,0,0,0,0,0,1.9969,1.998,2.0087,2.0091,2.0012,2.0057,2.0064,2.0091,2.0124,2.0127,2.0092,2.0089,2.0152,2.016,2.0167,2.0258,2.0185,2.0189,2.0192,2.0391,2.0395,2.0397,0,0,0,0,0,0,1.9966,1.9979,2.0085,2.0035,2.0048,2.0062,2.0092,2.0093,2.0112,2.013,2.0132,2.0109,2.0151,2.0161,2.0223,2.026,2.0191,2.0196,2.0388,2.0392,2.0396,2.0442,0,0,0,0,0,0,1.9962,1.9978,2.0008,2.0036,2.0051,2.014,2.0095,2.0096,2.012,2.0116,2.0146,2.0149,2.015,2.0216,2.0228,2.0265,2.0199,2.0385,2.039,2.0395,2.0437,2.0447,2.0455,0,0,0,0,0,1.9957,2.002,2.001,2.0023,2.0089,2.0142,2.0151,2.015,2.0123,2.0153,2.0164,2.0148,2.0254,2.0223,2.0236,2.0275,2.0383,2.0389,2.0394,2.0433,2.0445,2.0455,0,0,0,0,0,0,1.9997,2.0023,2.0013,2.0086,2.0112,2.0137,2.0175,2.0163,2.0197,2.0192,2.0189,2.0197,2.0261,2.0275,2.0239,2.0351,2.0314,2.0323,2.0339,2.0351,2.036,2.0355,2.0203,0,0,0,0,0,2.0014,2.0055,2.0076,2.0139,2.0152,2.0161,2.0185,2.0182,2.0208,2.0219,2.0235,2.0262,2.0301,2.0327,2.0364,2.0439,2.0444,2.0473,2.0482,2.0489,2.0496,2.0535,2.0547,2.0416,2.0416,2.0416,0,0,2.005,2.007,2.0096,2.0147,2.0167,2.0209,2.0171,2.0218,2.0249,2.0227,2.0286,2.0299,2.0328,2.0396,2.0427,2.041,2.0533,2.0496,2.0502,2.0506,2.0542,2.0554,2.0565,2.042,2.042,2.0419,0,0,2.0137,2.0157,2.021,2.023,2.026,2.0265,2.0278,2.0304,2.0311,2.0371,2.0354,2.0391,2.0459,2.048,2.0499,2.0591,2.0577,2.0604,2.0651,2.0688,2.0698,2.0707,2.0739,2.075,2.0611,2.0611,2.0611,0,2.0178,2.0242,2.0239,2.0287,2.0309,2.029,2.0343,2.0362,2.0403,2.0418,2.0398,2.0481,2.0499,2.0571,2.0593,2.061,2.0624,2.06,2.0697,2.0706,2.0715,2.0744,2.0756,2.0614,2.0614,2.0613,2.0613,0,2.029,2.0334,2.0373,2.0411,2.0438,2.0488,2.0492,2.052,2.0514,2.0521,2.058,2.0601,2.0641,2.0658,2.0654,2.0729,2.0717,2.0697,2.066,2.073,2.0758,2.0769,2.0618,2.0617,2.0616,2.0616,0,0,2.0405,2.0439,2.0454,2.047,2.05,2.0534,2.0582,2.0621,2.0643,2.0671,2.0711,2.0768,2.0748,2.077,2.0768,2.0801,2.087,2.0776,2.0777,2.0792,2.0952,2.0966,2.0979,2.0861,2.0863,2.0865,2.0949,0,2.0493,2.0577,2.0575,2.0654,2.0693,2.0674,2.0716,2.0738,2.0746,2.078,2.0788,2.0827,2.08,2.0813,2.0845,2.0855,2.0902,2.0849,2.0896,2.0898,2.0889,2.0994,2.101,2.1088,2.096,2.0962,2.0963,0,2.0607,2.0637,2.0719,2.0741,2.0758,2.0796,2.0829,2.0862,2.0887,2.089,2.0913,2.0905,2.0952,2.0915,2.098,2.0943,2.0963,2.097,2.0973,2.0977,2.0934,2.0999,2.1114,2.1125,2.0981,2.0979,2.0978,0,2.068,2.0742,2.0798,2.0813,2.0841,2.0867,2.088,2.0902,2.0925,2.0954,2.0968,2.1003,2.1022,2.1049,2.1049,2.1022,2.1115,2.1077,2.1117,2.1117,2.1137,2.1136,2.1255,2.1152,2.1151,2.1151,2.1151,0,2.0778,2.0829,2.0831,2.0866,2.0921,2.0918,2.0972,2.0983,2.1002,2.1037,2.1024,2.1057,2.1056,2.109,2.1091,2.1143,2.1153,2.1155,2.1155,2.1156,2.1156,2.1168,2.1162,2.1154,2.1154,2.1153,2.1153,0,2.0869,2.0874,2.0933,2.0954,2.096,2.1,2.1017,2.105,2.1055,2.11,2.111,2.1119,2.1157,2.1161,2.1206,2.1206,2.1269,2.1264,2.1261,2.126,2.1299,2.1295,2.1429,2.1446,2.1333,2.1334,2.1335,0,2.0931,2.0969,2.0993,2.1016,2.103,2.1067,2.1089,2.1086,2.111,2.1139,2.1168,2.1205,2.1235,2.1297,2.1307,2.1341,2.1335,2.138,2.134,2.1339,2.1334,2.1331,2.1334,2.1388,2.1389,2.139,2.1391,0,2.104,2.1039,2.1072,2.1104,2.1131,2.1157,2.1181,2.12,2.12,2.1227,2.1266,2.1289,2.1334,2.1371,2.1404,2.1416,2.1403,2.1403,2.1414,2.1415,2.1411,2.1412,2.1281,2.14,2.1399,2.1398,2.1398,2.1397,2.1117,2.1149,2.117,2.1206,2.1224,2.1246,2.1277,2.1285,2.1317,2.1353,2.135,2.1393,2.1414,2.1457,2.1472,2.1504,2.1489,2.1505,2.1509,2.1513,2.1516,2.1407,2.1511,2.151,2.151,2.151,2.151,0,2.1223,2.1235,2.1269,2.1302,2.133,2.1315,2.134,2.1364,2.1401,2.1422,2.1451,2.1495,2.153,2.1542,2.1575,2.1599,2.1594,2.1608,2.1606,2.1608,2.1529,2.1515,2.1611,2.1611,2.1611,2.1611,2.1611,2.1611,2.1282,2.1334,2.1336,2.1396,2.1408,2.1449,2.1465,2.1485,2.1501,2.155,2.1579,2.1586,2.1603,2.1637,2.1668,2.167,2.1683,2.1699,2.1699,2.1625,2.1614,2.1604,2.1592,2.1702,2.1702,2.1776,2.1777,2.1777]},{"header":{"parameterUnit":"m.s-1","parameterCategory":1,"la1":30.2991,"la2":30.254,"lo1":-89.0895,"lo2":-89.0444,"dy":0.0017,"dx":0.0017,"nx":28,"ny":28,"refTime":"2023-08-13T03:00:00:Z","depth":0,"parameterNumber":3,"parameterNumberName":"V-component_of_WINDS"},"data":[0,0,0,0,0,0,0,0,0,0,0,0,0,0,0,0,0,0,0,0,0,0,0,0,0,0,0,0,0,0,0,0,0,0,0,0,0,0,0,0,0,0,0,0,0,0,0,0,0,0,0,0,0,0,0,0,0,0,5.4574,5.4574,0,5.4576,5.4576,5.4576,5.449,5.4487,5.4485,5.4483,5.4483,5.4485,5.4487,0,0,0,0,0,0,0,0,0,0,0,0,0,5.4494,5.4496,5.4574,5.4574,5.4574,5.4576,5.4576,5.4576,5.449,5.4487,5.4484,5.4482,5.4483,5.4485,5.4488,0,0,0,0,0,0,0,0,0,0,0,0,0,5.4515,5.4496,5.4574,5.4531,5.4527,5.4576,5.4576,5.4576,5.4491,5.4487,5.4484,5.4481,5.4482,5.4485,5.4488,5.4576,0,0,5.4498,5.4499,0,0,0,0,0,0,0,0,5.4514,5.4518,5.4537,5.4534,5.453,5.4529,5.4547,5.4576,5.4491,5.4505,5.4483,5.4479,5.4501,5.4502,5.451,5.4576,5.4576,5.4498,5.45,5.4501,5.4502,0,0,0,0,0,0,0,5.4513,5.4518,5.4574,5.4538,5.4533,5.4511,5.4511,5.4552,5.4522,5.4503,5.4497,5.4498,5.4498,5.4507,5.451,5.4576,5.4498,5.4501,5.4503,5.4504,5.4713,5.4717,0,0,0,0,0,0,5.4517,5.4517,5.4574,5.4574,5.4514,5.4516,5.4515,5.4533,5.4521,5.4516,5.4501,5.4494,5.4504,5.4506,5.4509,5.4611,5.4501,5.4504,5.4506,5.471,5.4714,5.4718,0,0,0,0,0,0,5.4516,5.4523,5.4574,5.4544,5.4549,5.4521,5.4541,5.4535,5.4543,5.452,5.4514,5.4516,5.4501,5.4505,5.456,5.4609,5.4506,5.4509,5.4706,5.4711,5.4716,5.4815,0,0,0,0,0,0,5.4514,5.4523,5.4557,5.4546,5.4551,5.4626,5.4544,5.4537,5.4549,5.454,5.4532,5.4528,5.4499,5.4556,5.4563,5.4612,5.4511,5.4701,5.4708,5.4715,5.4807,5.4823,5.4837,0,0,0,0,0,5.4512,5.4585,5.4559,5.4567,5.4592,5.4629,5.4632,5.4597,5.4554,5.4587,5.4572,5.4528,5.4603,5.4562,5.457,5.462,5.4698,5.4706,5.4714,5.48,5.482,5.4836,0,0,0,0,0,0,5.4602,5.4582,5.4554,5.4626,5.463,5.4614,5.4655,5.4619,5.4635,5.4626,5.4582,5.4581,5.4643,5.4637,5.4592,5.4705,5.4643,5.4653,5.4706,5.4724,5.4739,5.4738,5.4514,0,0,0,0,0,5.4631,5.4662,5.4643,5.4708,5.4712,5.4683,5.4698,5.4671,5.4673,5.4674,5.4663,5.4666,5.469,5.4707,5.4728,5.4807,5.4803,5.4845,5.486,5.4872,5.4881,5.4921,5.4939,5.4745,5.4745,5.4745,0,0,5.4689,5.4682,5.4705,5.4726,5.4726,5.4759,5.4685,5.4723,5.4747,5.468,5.4731,5.4723,5.4724,5.4791,5.4819,5.4788,5.4934,5.4883,5.4893,5.4895,5.4931,5.4949,5.4966,5.4751,5.475,5.4749,0,0,5.4812,5.4811,5.4864,5.4866,5.4867,5.4848,5.4861,5.4851,5.4843,5.4894,5.4844,5.4872,5.4915,5.4917,5.4924,5.5049,5.5009,5.5057,5.5134,5.5173,5.5189,5.5202,5.5245,5.5261,5.5066,5.5067,5.5067,0,5.4885,5.4933,5.4896,5.4938,5.4948,5.489,5.4943,5.4946,5.4954,5.4962,5.4927,5.4979,5.4976,5.5042,5.5072,5.508,5.5093,5.5057,5.519,5.5202,5.5214,5.5255,5.5271,5.5072,5.5072,5.5071,5.5071,0,5.5021,5.5055,5.5098,5.5108,5.5123,5.517,5.514,5.516,5.5133,5.5117,5.5169,5.5163,5.5181,5.5196,5.5169,5.5258,5.5238,5.5197,5.5134,5.5239,5.5276,5.5292,5.5081,5.5079,5.5077,5.5075,0,0,5.5199,5.5189,5.5205,5.5208,5.5205,5.5231,5.5275,5.5294,5.5311,5.5319,5.5354,5.5393,5.5354,5.5362,5.5336,5.5371,5.5468,5.5325,5.5324,5.535,5.5564,5.5594,5.5613,5.5442,5.5445,5.5448,5.5564,0,5.5318,5.5393,5.5362,5.544,5.547,5.5416,5.5454,5.5456,5.5443,5.5467,5.5452,5.5479,5.5428,5.5432,5.5464,5.545,5.551,5.5441,5.5473,5.5475,5.5473,5.5632,5.5664,5.5774,5.5578,5.5581,5.5583,0,5.5465,5.5479,5.556,5.5552,5.5563,5.5599,5.5613,5.5637,5.5638,5.5626,5.5635,5.5601,5.5643,5.5582,5.5639,5.5592,5.5604,5.5599,5.5602,5.5602,5.5534,5.5635,5.5808,5.5824,5.5605,5.5604,5.5602,0,5.5585,5.5625,5.5678,5.5683,5.5674,5.57,5.5698,5.5696,5.5709,5.5722,5.573,5.5747,5.5756,5.5771,5.5741,5.57,5.5802,5.5739,5.5792,5.5793,5.5814,5.5813,5.599,5.5826,5.5825,5.5825,5.5825,0,5.5719,5.577,5.5731,5.5764,5.582,5.5784,5.584,5.5831,5.583,5.586,5.5814,5.5843,5.5804,5.5828,5.5806,5.5856,5.5861,5.5852,5.5845,5.5855,5.5856,5.586,5.5851,5.5829,5.5829,5.5828,5.5827,0,5.5861,5.5838,5.5892,5.588,5.5878,5.592,5.5909,5.5939,5.5923,5.5961,5.5968,5.5943,5.597,5.5943,5.5968,5.5953,5.6019,5.6002,5.6019,5.6013,5.6068,5.6063,5.6252,5.6275,5.6098,5.61,5.6101,0,5.5947,5.5985,5.5978,5.5995,5.5996,5.6023,5.6037,5.6003,5.6018,5.6023,5.6051,5.6075,5.6091,5.6136,5.612,5.6139,5.6121,5.6186,5.6123,5.6132,5.612,5.6117,5.612,5.6198,5.62,5.6202,5.6203,0,5.6102,5.6088,5.6109,5.6127,5.6144,5.6156,5.6164,5.6181,5.6145,5.6165,5.6192,5.6205,5.6231,5.6254,5.6268,5.6265,5.6228,5.6224,5.6237,5.6246,5.6254,5.6249,5.6052,5.6219,5.6217,5.6216,5.6215,5.6215,5.6217,5.6248,5.6248,5.6273,5.6276,5.6285,5.6312,5.63,5.6322,5.634,5.6319,5.6352,5.6352,5.6367,5.6369,5.6394,5.6366,5.6385,5.639,5.6395,5.6402,5.6252,5.6396,5.6396,5.6395,5.6395,5.6395,0,5.6368,5.6365,5.6389,5.6402,5.6422,5.6387,5.6394,5.6412,5.6442,5.6446,5.6463,5.6494,5.6517,5.6503,5.6522,5.6544,5.6528,5.655,5.6547,5.6547,5.6427,5.6413,5.6563,5.6563,5.6563,5.6563,5.6563,5.6563,5.6448,5.6499,5.6486,5.6537,5.6534,5.6566,5.6573,5.6581,5.6583,5.662,5.6639,5.663,5.6626,5.6645,5.6664,5.6659,5.6667,5.6696,5.6685,5.6572,5.6555,5.654,5.6526,5.6698,5.6698,5.6803,5.6804,5.6804]}]]